Location: Gälforsberget
(66.6500°N, 22.4167°E)
Time: 07:33:29
(UTC+00:00)

Cosmos 1980 Rocket - Pass Details

Date: 11 April 2026
Orbit: 826 x 850 km, 71.0° (Epoch: 9 May)

Event Time Altitude Azimuth Distance (km) Brightness Sun altitude
Rises 23:27:11 0° 308° (NW) 3,416 5.7 -14.1°
Reaches altitude 10° 23:29:38 10° 307° (NW) 2,482 4.9 -14.0°
Maximum altitude 23:35:19 75° 223° (SW) 887 2.2 -13.8°
Drops below altitude 10° 23:41:01 10° 140° (SE) 2,481 4.3 -13.7°
Sets 23:43:28 0° 138° (SE) 3,415 5.1 -13.6°
